Wetbulb
50.87 51.26 51.83 52.50 52.35 52.50 53.53 54.13 53.70 53.14 52.65 52.48 52.49 52.76 52.93 53.19 52.94 50.69 48.11 47.91 46.06 42.45 43.13 44.04 45.13 42.93 43.49 43.23 40.93 42.35 41.40 42.00 43.66 39.38 38.88 39.94 40.18 43.74 44.06 46.85 45.59 45.59 44.36 43.77 45.56 43.40 42.17 55.40 57.14 56.17 55.55 58.38 58.80 59.53
50.51 50.76 51.52 52.23 52.58 52.68 53.04 53.92 53.39 52.79 52.62 52.48 52.51 52.67 52.65 52.96 53.14 50.38 46.77 49.01 49.22 44.91 42.89 45.13 46.93 47.84 47.32 46.45 44.07 43.33 41.66 41.14 45.02 42.49 43.09 44.48 42.09 44.59 43.36 39.63 48.53 45.42 48.71 47.69 48.28 47.62 54.94 56.34 56.26 57.88 57.21 57.16 57.58 58.75
50.41 50.46 51.18 52.00 52.48 52.38 52.79 53.41 53.58 52.68 52.12 52.44 52.61 52.55 52.49 52.81 53.00 52.06 48.26 48.58 45.83 43.32 43.43 42.83 43.14 46.65 48.17 48.45 49.76 41.95 44.16 44.83 44.73 47.29 45.32 43.64 39.73 44.55 42.00 42.69 44.33 49.11 49.04 49.06 49.69 53.47 53.65 56.06 57.34 55.86 55.68 55.57 59.48 57.82
50.54 50.62 51.12 51.80 52.38 52.32 52.79 53.33 53.31 52.54 52.25 52.75 52.44 52.56 52.81 53.16 53.43 52.73 49.48 49.17 47.25 44.59 38.62 42.01 46.59 45.51 49.33 48.85 48.21 48.94 46.55 46.94 47.92 47.62 44.67 42.38 39.80 43.25 41.57 42.84 42.22 47.77 46.38 48.58 50.15 53.28 55.01 56.24 55.59 53.77 53.91 55.44 57.69 55.56
50.52 50.80 51.00 51.49 52.15 52.63 53.16 53.06 53.14 52.91 52.71 52.33 52.41 52.58 52.83 53.06 53.25 53.23 51.99 51.13 50.48 44.82 38.98 40.40 46.51 46.78 47.36 46.74 46.28 47.03 46.05 44.88 45.08 43.19 42.82 40.39 43.90 42.15 43.44 42.19 40.11 45.37 46.26 46.28 46.18 52.74 52.79 53.82 53.52 52.86 52.12 53.83 54.53 52.93
50.32 50.87 50.88 51.51 51.93 52.42 52.98 52.92 52.96 52.94 52.50 52.10 52.48 52.40 52.50 53.20 52.66 50.32 43.95 49.59 50.54 48.82 42.25 37.75 44.92 44.40 46.28 45.42 45.37 45.09 45.34 44.30 44.02 41.76 41.60 43.99 45.13 42.82 38.50 37.32 43.82 45.80 47.34 49.22 49.07 52.46 51.35 50.91 50.85 51.64 51.61 52.46 52.82 52.05
50.46 50.99 51.10 51.28 51.70 52.39 52.62 52.55 52.75 52.59 52.38 52.42 52.38 52.61 52.76 52.69 51.86 46.17 43.52 48.65 50.49 50.37 42.58 38.68 38.59 42.63 44.10 45.56 44.79 43.68 44.99 44.31 44.29 42.94 42.40 42.72 43.44 43.28 40.30 36.75 43.42 45.79 46.84 47.50 48.77 48.65 46.64 48.34 47.94 50.80 50.81 51.13 51.39 52.29
50.88 51.02 50.89 51.35 51.81 52.47 52.78 52.38 52.64 52.25 52.33 52.56 52.44 52.47 52.45 52.35 51.56 48.01 50.59 51.01 51.71 46.69 43.66 37.30 36.64 39.83 46.04 44.14 43.36 45.24 42.49 43.38 43.49 42.48 43.40 40.78 43.30 42.79 37.38 42.62 45.07 46.25 47.18 46.74 47.32 48.45 48.15 49.10 49.32 49.44 50.42 50.35 49.87 50.82
50.80 50.94 51.13 51.32 51.97 52.59 52.40 52.41 52.01 51.79 52.18 52.22 52.12 52.03 51.43 49.44 46.44 48.20 52.53 52.83 51.22 46.89 39.55 37.54 35.84 35.68 45.83 43.98 46.08 44.38 43.24 38.88 44.72 39.18 39.80 41.94 38.69 36.17 40.70 43.06 44.83 46.62 45.99 46.21 47.56 47.81 48.01 47.61 48.09 48.87 49.28 49.73 49.94 50.47
50.97 51.07 51.31 51.56 51.95 52.03 51.99 52.19 52.04 51.94 52.04 51.69 50.04 46.58 42.91 46.75 51.77 51.92 48.93 44.12 44.03 44.36 43.52 38.39 42.72 37.33 42.54 42.42 41.23 41.17 43.82 39.84 37.47 39.04 42.92 38.11 37.57 43.95 46.09 46.58 46.99 47.10 47.85 48.18 45.68 45.21 46.47 46.65 47.57 48.64 49.19 50.39 50.75 51.85
51.21 51.30 51.52 51.69 51.79 51.87 51.72 51.73 51.76 51.64 48.29 47.15 45.51 44.83 48.45 50.63 50.07 46.39 41.44 39.76 40.06 38.03 40.95 41.15 41.25 38.59 45.40 38.09 38.16 42.23 39.83 41.52 36.31 38.99 38.55 38.16 37.04 43.05 47.15 47.24 48.39 49.22 48.84 48.38 49.01 49.19 49.24 49.23 48.56 49.12 49.53 51.42 52.29 52.92
51.12 51.48 51.70 51.76 51.67 52.06 51.56 51.72 51.41 49.20 46.83 47.04 46.56 47.05 47.52 45.14 42.34 37.74 37.84 40.12 38.48 37.53 42.31 41.12 40.72 41.88 43.20 44.92 39.37 40.81 37.92 39.54 34.89 42.58 37.51 35.20 41.49 47.56 48.17 46.84 47.29 47.59 48.92 49.05 49.79 49.37 49.32 49.34 49.76 49.78 49.93 50.84 52.08 53.45
51.23 51.76 51.85 51.72 51.83 51.81 51.46 51.46 51.69 51.49 49.58 47.96 43.77 41.46 41.30 40.11 33.66 33.36 33.46 36.72 37.84 42.18 43.49 42.67 41.90 42.62 42.48 42.68 39.25 39.03 37.10 36.71 43.34 37.71 36.76 40.35 46.10 47.92 49.35 48.89 49.03 50.00 49.18 49.28 49.69 50.17 49.50 49.80 50.37 49.98 50.20 51.88 52.87 52.99
51.63 51.84 51.87 51.92 51.55 51.32 51.34 51.63 51.74 50.92 47.47 42.03 38.85 33.54 36.80 35.58 36.02 37.47 37.96 40.39 44.79 45.99 44.12 44.84 43.98 43.76 42.52 38.78 39.60 36.70 40.79 42.63 37.61 36.06 35.90 44.37 46.81 47.21 49.12 51.23 52.65 50.43 50.63 48.71 49.83 50.16 49.97 50.31 49.86 51.60 51.60 52.54 52.94 53.19
51.88 51.59 51.45 51.95 52.20 51.76 51.70 51.67 51.79 50.32 44.98 40.43 40.01 33.94 36.91 40.57 42.14 42.29 43.68 43.07 45.53 46.59 45.85 44.86 44.89 44.80 42.62 39.91 41.07 40.61 38.79 37.22 39.21 39.23 42.43 45.28 47.79 48.38 51.21 53.19 49.71 49.11 49.35 49.32 50.09 50.06 50.04 50.74 50.47 50.81 52.60 53.82 54.56 55.39
51.02 51.06 51.01 52.08 51.86 51.74 51.60 51.47 50.51 48.80 45.61 42.08 40.91 38.44 40.97 39.42 39.93 41.37 42.25 42.28 45.36 44.67 45.26 44.77 41.93 40.47 40.84 41.32 38.70 37.62 35.82 36.30 39.19 42.94 46.04 48.29 47.77 50.49 52.07 53.95 49.69 50.22 49.59 49.18 49.53 49.79 49.94 50.80 51.04 51.34 53.32 55.66 57.37 57.39
50.54 47.68 50.98 51.32 51.23 50.36 51.03 48.02 46.39 43.87 41.56 40.73 39.16 42.70 41.30 40.40 39.35 40.48 41.97 42.65 46.80 43.82 40.73 42.59 39.59 40.91 44.21 40.02 37.69 39.84 37.36 41.57 45.03 46.40 49.84 49.91 48.67 51.48 54.07 54.19 50.96 49.47 49.37 49.64 50.02 50.36 51.20 52.17 53.52 53.91 55.59 59.24 59.28 58.74
47.93 49.75 50.88 50.72 50.83 48.99 47.99 47.71 44.07 42.81 39.65 41.95 39.07 40.71 41.91 42.37 41.15 41.82 43.85 44.75 43.91 43.61 43.28 40.54 42.83 40.62 40.54 38.74 41.21 45.73 46.57 48.61 50.24 50.06 50.32 50.42 51.16 53.61 55.41 56.67 56.87 55.23 51.58 52.14 52.52 53.25 53.91 54.48 55.32 58.07 58.05 58.86 66.44 70.02
48.95 49.61 50.20 50.51 49.87 47.33 43.30 44.68 45.05 39.70 41.33 42.88 42.93 43.08 42.86 42.83 44.20 44.40 44.56 45.63 46.44 47.06 44.86 42.96 40.27 39.58 41.87 47.77 47.67 48.59 49.18 49.60 48.36 49.22 50.12 50.97 52.47 53.49 54.59 56.17 59.77 61.05 57.73 57.61 56.84 54.98 54.63 55.25 58.46 62.60 64.41 66.46 68.85 67.20
50.34 50.57 51.83 51.62 50.35 45.35 42.15 43.46 46.55 41.87 39.32 42.22 43.63 42.71 43.40 43.96 45.81 45.86 45.53 45.77 45.44 44.52 42.00 40.50 41.44 44.79 45.77 48.05 50.40 49.87 49.96 50.66 49.66 47.99 48.96 50.68 52.80 53.15 53.64 55.10 57.55 59.22 59.96 61.52 60.23 55.96 62.20 62.99 63.41 64.78 64.89 64.11 64.89 64.84
48.81 50.66 51.57 50.51 47.65 46.42 43.87 43.06 43.11 43.02 42.86 42.02 44.39 44.54 43.91 45.48 44.47 44.43 44.61 45.99 43.52 42.13 41.57 44.21 45.27 47.02 49.13 48.97 49.43 49.51 48.64 49.44 48.66 48.85 49.12 49.84 51.69 52.75 53.58 54.74 57.71 58.10 57.98 58.46 58.98 59.12 57.96 60.18 62.43 63.69 63.05 63.14 64.08 64.46
48.59 50.25 49.41 49.56 45.34 44.98 42.56 45.18 43.45 44.78 42.60 42.97 43.38 44.94 42.87 42.97 44.04 45.34 46.26 43.50 42.86 43.97 45.46 46.19 47.36 48.02 48.34 48.58 49.28 50.42 50.41 50.92 51.90 51.92 49.59 50.24 50.89 52.98 52.34 54.59 58.61 57.49 57.83 57.23 58.66 59.42 59.12 59.70 61.29 62.90 62.69 63.00 60.45 60.74
49.56 48.98 46.81 45.82 43.32 41.44 41.22 47.22 42.35 43.34 40.77 42.55 44.64 42.90 43.30 44.40 47.22 48.17 43.63 44.49 44.96 48.71 48.86 48.39 48.93 50.06 49.41 50.66 51.64 52.63 52.08 52.73 51.74 52.33 52.52 52.78 53.89 55.15 55.41 53.37 56.14 57.27 56.31 57.27 58.97 58.69 58.90 52.98 56.99 60.08 60.00 61.10 61.24 61.33
49.55 45.97 44.15 44.11 42.95 40.09 46.18 43.90 45.03 43.91 44.79 43.85 43.32 42.66 44.79 47.22 47.83 44.86 42.87 45.71 47.63 49.88 50.47 50.55 50.37 50.08 51.85 51.85 51.18 51.63 51.81 52.50 53.58 53.31 55.41 55.45 54.04 54.08 56.84 56.60 57.65 58.16 58.67 58.94 58.86 57.85 57.71 58.78 54.69 57.78 58.74 58.24 57.24 56.66
40.09 40.23 41.87 36.47 44.19 42.55 42.66 44.22 45.04 44.89 42.98 44.85 43.93 44.97 47.42 47.69 43.36 42.89 42.54 44.96 47.67 48.50 50.42 52.82 51.34 51.65 50.52 50.72 50.99 50.87 52.47 52.81 52.93 52.43 55.47 55.80 55.52 57.05 57.52 57.48 56.69 56.83 59.24 58.43 57.33 57.11 56.23 57.33 56.55 55.29 55.22 56.15 55.88 55.70
36.21 43.42 39.71 43.18 44.73 44.20 44.51 42.63 43.36 43.24 43.83 44.17 45.64 49.08 49.37 46.01 41.98 39.65 43.32 46.37 47.89 49.51 50.27 51.18 50.69 50.79 50.47 51.49 50.03 51.19 52.62 53.32 53.62 53.11 54.42 54.58 55.33 55.45 55.65 54.34 54.66 54.93 57.28 57.99 57.50 55.67 55.43 56.17 56.16 55.26 55.47 54.69 49.09 55.42
38.75 42.76 46.88 49.03 47.00 47.40 45.78 46.19 46.73 44.71 44.32 44.59 46.97 46.53 45.99 41.73 41.80 44.20 48.34 50.35 49.82 51.76 53.93 55.30 54.00 52.45 51.28 51.11 52.77 53.83 55.13 55.63 56.18 56.01 56.61 56.20 56.10 55.57 54.35 53.12 52.70 53.14 56.64 57.22 56.53 55.82 54.80 54.50 54.20 54.04 54.16 54.58 55.28 55.69
44.69 46.25 43.81 46.25 46.63 47.79 44.69 46.07 46.41 46.20 47.97 51.07 48.97 44.28 42.99 43.65 44.70 50.34 50.32 52.50 52.50 53.37 54.40 55.40 55.64 55.64 54.80 54.90 55.63 56.25 56.72 57.94 58.01 58.03 58.49 57.37 56.71 56.28 55.87 54.88 54.08 45.14 52.83 53.16 55.67 56.32 55.48 54.95 54.03 53.31 52.71 52.39 52.80 54.46
43.71 47.49 47.49 45.96 47.60 48.02 47.77 48.00 49.14 51.80 52.34 50.51 48.31 46.96 48.57 52.52 53.88 52.60 51.83 52.91 55.43 54.25 52.59 52.62 53.83 56.15 56.23 56.61 56.31 55.79 55.73 56.64 54.13 53.33 53.75 53.67 54.21 54.64 56.70 56.41 56.11 56.06 56.02 54.91 43.84 48.07 51.88 53.67 53.58 53.09 52.57 52.17 52.44 52.91
46.12 49.61 47.11 48.43 48.71 48.65 51.50 52.95 53.78 54.64 54.76 54.51 53.21 52.27 53.17 55.44 55.77 54.19 53.20 51.94 52.22 53.42 54.24 54.34 54.79 54.31 53.86 54.45 54.41 54.89 54.66 54.64 55.71 55.22 53.66 52.96 53.39 55.30 56.24 56.33 56.32 56.44 56.51 55.72 54.87 54.68 47.27 53.09 51.12 54.52 52.41 51.93 52.04 51.82
50.58 49.36 48.03 49.59 49.49 52.73 54.01 55.56 56.06 56.20 55.38 54.49 54.67 53.57 53.20 53.69 54.98 54.31 53.58 53.56 53.51 53.27 52.40 52.07 53.06 53.83 53.75 53.68 54.01 53.86 52.88 54.67 54.36 54.38 55.11 55.20 53.78 53.46 54.64 56.03 56.52 56.96 56.38 55.44 54.86 54.31 53.93 53.65 53.83 53.46 53.34 53.02 52.86 52.07
51.55 49.93 49.40 49.16 50.76 54.12 55.23 53.82 52.84 53.06 52.92 53.43 53.54 53.93 53.98 54.30 52.53 54.55 55.31 54.69 54.33 53.23 49.84 52.50 52.40 52.12 53.86 53.58 52.84 52.84 46.37 54.64 55.44 54.20 54.80 55.47 55.32 54.98 56.04 56.55 56.09 55.83 55.72 55.25 55.04 54.75 54.27 53.61 53.53 53.53 53.34 53.27 53.52 53.36
50.96 52.16 52.38 51.12 51.22 51.14 52.27 51.54 50.62 51.85 52.44 51.82 52.83 53.98 52.07 51.87 51.05 53.52 58.15 56.69 55.14 54.20 54.56 54.72 55.12 55.36 55.25 54.87 54.99 54.30 50.36 53.16 48.54 44.01 43.62 42.00 40.71 45.02 55.21 56.73 56.73 57.06 56.93 56.57 56.20 55.57 54.96 54.61 54.27 54.11 54.11 53.95 54.09 54.35
MSLP
1023.05 1022.47 1021.83 1021.30 1020.78 1020.36 1019.94 1019.51 1019.28 1019.20 1019.10 1018.97 1018.80 1018.54 1018.38 1018.21 1018.15 1018.17 1018.23 1018.29 1017.78 1017.37 1016.60 1016.44 1015.96 1015.52 1015.52 1015.29 1014.83 1015.24 1015.29 1014.78 1014.25 1013.18 1012.23 1011.21 1010.45 1009.52 1009.05 1007.95 1007.49 1007.19 1007.18 1006.56 1005.99 1004.50 1002.66 1002.10 1001.64 1001.99 1003.51 1003.17 1003.09 1002.71
1022.80 1022.27 1021.65 1021.06 1020.55 1020.12 1019.73 1019.29 1019.09 1019.05 1018.92 1018.78 1018.65 1018.48 1018.26 1018.12 1018.05 1018.16 1018.17 1018.35 1018.30 1018.01 1016.91 1016.75 1016.18 1015.78 1015.31 1015.27 1015.23 1015.41 1015.15 1014.67 1014.23 1013.70 1013.22 1012.34 1011.48 1010.83 1009.88 1008.18 1007.84 1007.44 1006.23 1005.41 1004.51 1003.11 1002.91 1002.99 1003.35 1004.07 1004.37 1004.31 1004.35 1004.11
1022.46 1021.93 1021.39 1020.81 1020.30 1019.85 1019.46 1019.08 1018.81 1018.74 1018.66 1018.54 1018.37 1018.25 1018.16 1017.97 1017.90 1017.96 1017.98 1018.15 1018.21 1017.78 1016.72 1016.33 1015.53 1015.35 1015.49 1015.46 1015.40 1015.13 1015.25 1015.10 1014.93 1014.94 1014.02 1013.32 1012.58 1011.99 1010.56 1009.54 1008.93 1007.65 1007.50 1006.25 1005.08 1003.12 1003.38 1003.75 1004.35 1004.93 1005.13 1004.98 1004.93 1004.60
1022.10 1021.59 1021.06 1020.49 1019.97 1019.51 1019.12 1018.74 1018.54 1018.46 1018.31 1018.24 1018.03 1017.97 1017.89 1017.71 1017.61 1017.60 1017.69 1017.80 1018.04 1017.99 1017.26 1015.51 1015.37 1015.13 1014.79 1015.00 1015.04 1015.04 1015.12 1015.56 1015.52 1015.49 1014.85 1014.12 1013.31 1013.02 1011.74 1011.00 1010.00 1008.29 1008.03 1006.04 1004.74 1004.04 1003.91 1004.04 1004.66 1005.11 1005.04 1005.09 1004.83 1004.89
1021.69 1021.17 1020.70 1020.18 1019.62 1019.15 1018.72 1018.46 1018.21 1018.07 1018.01 1017.97 1017.80 1017.72 1017.62 1017.44 1017.37 1017.34 1017.34 1017.27 1017.30 1017.64 1017.01 1015.77 1015.02 1014.48 1014.52 1014.51 1014.54 1014.88 1015.18 1015.41 1015.75 1015.65 1015.19 1014.57 1013.92 1013.59 1012.50 1011.87 1008.88 1007.77 1006.54 1005.71 1003.85 1004.19 1004.47 1004.38 1004.94 1005.13 1005.05 1004.83 1004.92 1004.43
1021.23 1020.74 1020.28 1019.80 1019.29 1018.78 1018.29 1018.13 1017.89 1017.77 1017.72 1017.65 1017.51 1017.45 1017.38 1017.26 1017.22 1017.21 1017.06 1017.15 1017.09 1017.28 1017.13 1015.99 1014.79 1014.47 1014.47 1014.56 1014.53 1014.85 1015.21 1015.59 1015.92 1015.58 1015.22 1014.62 1013.96 1013.66 1012.06 1009.36 1006.40 1006.38 1006.35 1005.76 1004.80 1004.77 1004.88 1004.89 1005.44 1005.29 1004.87 1005.03 1004.76 1004.69
1020.71 1020.24 1019.81 1019.34 1018.84 1018.37 1017.99 1017.75 1017.52 1017.45 1017.36 1017.24 1017.14 1017.13 1017.10 1017.11 1017.21 1017.10 1016.88 1016.81 1016.98 1017.21 1017.08 1016.08 1015.07 1014.67 1014.59 1014.53 1014.70 1015.00 1015.25 1015.46 1015.51 1015.54 1015.05 1014.36 1013.96 1013.77 1011.35 1007.42 1006.06 1005.77 1005.58 1005.53 1005.63 1005.83 1004.65 1004.21 1004.44 1004.72 1004.92 1004.81 1004.64 1004.04
1020.24 1019.77 1019.35 1018.87 1018.34 1017.91 1017.58 1017.36 1017.10 1017.10 1017.01 1016.89 1016.78 1016.75 1016.73 1016.74 1016.77 1016.66 1015.88 1016.47 1016.84 1017.03 1016.93 1016.37 1015.24 1014.81 1014.54 1014.25 1014.35 1014.71 1014.77 1015.27 1015.05 1014.34 1014.35 1013.70 1013.43 1013.09 1009.01 1004.59 1005.11 1005.53 1005.67 1005.44 1005.37 1005.26 1004.64 1004.60 1004.65 1004.63 1004.69 1004.50 1004.10 1003.37
1019.73 1019.31 1018.86 1018.39 1017.86 1017.29 1017.17 1017.05 1016.86 1016.76 1016.64 1016.52 1016.42 1016.37 1016.40 1016.41 1016.18 1015.74 1015.59 1015.74 1016.23 1016.78 1016.45 1016.22 1015.22 1014.49 1014.49 1014.24 1014.23 1014.46 1014.36 1014.24 1013.71 1013.60 1013.11 1013.06 1011.83 1009.36 1003.59 1004.54 1004.78 1004.87 1004.48 1004.13 1004.86 1004.71 1004.32 1003.76 1003.87 1003.94 1004.29 1003.97 1003.81 1003.11
1019.21 1018.77 1018.34 1017.92 1017.49 1017.13 1016.97 1016.77 1016.57 1016.46 1016.27 1016.05 1016.17 1016.25 1015.89 1015.86 1015.59 1015.72 1015.45 1015.95 1016.12 1016.12 1016.07 1015.36 1014.87 1014.57 1014.52 1014.29 1014.20 1014.15 1013.45 1013.09 1012.42 1011.88 1011.94 1011.08 1007.75 1004.83 1004.28 1004.08 1003.77 1003.78 1003.50 1003.99 1003.72 1003.28 1003.15 1003.22 1003.29 1003.22 1003.35 1003.58 1003.35 1002.85
1018.62 1018.20 1017.76 1017.45 1017.16 1016.87 1016.69 1016.49 1016.38 1016.25 1016.14 1016.06 1016.09 1015.96 1015.91 1015.61 1015.47 1015.35 1015.32 1015.37 1015.46 1015.29 1014.96 1014.32 1014.25 1014.12 1013.96 1014.12 1014.00 1013.77 1012.93 1012.15 1011.24 1010.58 1010.46 1008.45 1005.15 1002.65 1002.15 1002.21 1002.41 1002.56 1002.49 1002.46 1002.20 1001.84 1001.71 1002.18 1002.29 1002.21 1002.37 1002.50 1002.59 1002.44
1018.00 1017.55 1017.15 1016.91 1016.69 1016.47 1016.37 1016.26 1016.26 1016.25 1016.27 1016.43 1016.51 1016.39 1016.14 1015.69 1015.43 1015.44 1014.65 1014.37 1014.24 1013.49 1013.30 1013.42 1013.43 1013.62 1013.52 1013.60 1013.51 1013.04 1012.26 1011.59 1010.03 1009.83 1009.29 1006.28 1002.34 1001.57 1001.46 1001.16 1000.95 1000.80 1000.70 1000.41 1000.62 1000.27 1000.78 1001.17 1001.30 1001.58 1001.81 1001.77 1001.69 1001.70
1017.38 1016.85 1016.57 1016.36 1016.15 1016.06 1016.08 1016.05 1016.04 1016.04 1016.18 1016.32 1016.34 1016.06 1015.73 1015.59 1015.13 1014.57 1013.72 1013.15 1012.84 1012.59 1012.69 1012.73 1012.70 1012.74 1013.07 1013.22 1012.99 1012.29 1011.06 1009.79 1009.19 1008.16 1006.53 1003.92 1002.63 1001.98 1001.01 999.84 998.61 998.43 998.33 998.42 998.47 999.04 999.69 1000.07 1000.57 1000.90 1000.91 1000.82 1000.92 1000.87
1016.79 1016.40 1016.08 1015.85 1015.69 1015.68 1015.68 1015.78 1015.81 1015.88 1016.05 1015.98 1015.76 1015.46 1015.02 1014.40 1013.97 1013.18 1012.82 1012.57 1012.24 1012.01 1012.09 1012.10 1012.01 1011.76 1011.87 1012.09 1011.57 1010.67 1009.33 1008.21 1007.06 1005.94 1004.45 1003.22 1002.23 1000.63 998.90 997.46 996.04 995.06 994.85 995.64 996.52 997.66 998.46 999.08 999.51 1000.03 1000.14 1000.08 1000.17 999.83
1016.35 1016.06 1015.79 1015.49 1015.10 1015.07 1015.30 1015.57 1015.69 1015.78 1015.88 1015.69 1015.46 1014.72 1013.89 1013.38 1013.09 1012.95 1012.84 1012.62 1012.27 1012.03 1011.83 1011.58 1011.24 1010.98 1010.39 1010.42 1009.98 1009.16 1007.99 1006.88 1005.64 1004.31 1003.35 1002.35 1001.04 999.13 997.13 995.60 994.86 993.93 993.32 994.28 995.58 996.55 997.36 998.27 998.88 999.25 999.24 999.32 999.30 998.81
1016.20 1015.83 1015.75 1015.70 1015.45 1015.19 1015.21 1015.48 1015.69 1015.77 1015.50 1015.24 1014.88 1014.14 1013.60 1013.43 1013.06 1012.91 1012.56 1012.18 1012.04 1011.75 1011.57 1011.46 1010.80 1009.93 1008.97 1008.63 1008.31 1007.66 1007.36 1006.15 1005.03 1004.04 1002.65 1001.33 999.30 997.48 996.16 994.83 994.51 994.33 994.14 994.40 995.08 996.18 997.18 997.74 998.06 998.22 998.58 998.38 998.09 997.72
1016.12 1016.10 1015.92 1015.87 1015.69 1015.56 1015.44 1015.56 1015.66 1015.49 1015.21 1014.56 1013.93 1013.62 1013.59 1013.37 1012.88 1012.56 1012.39 1012.05 1011.94 1011.79 1011.17 1010.66 1009.78 1008.29 1007.89 1007.36 1006.73 1006.27 1006.11 1005.07 1004.14 1002.99 1001.86 1000.47 999.19 997.23 995.75 994.97 994.75 994.76 994.71 994.84 995.49 996.24 996.94 997.51 997.83 998.00 997.33 996.44 996.67 996.26
1016.22 1016.06 1015.96 1015.89 1015.75 1015.54 1015.54 1015.43 1015.42 1015.00 1014.38 1013.71 1013.52 1013.07 1012.98 1012.72 1012.19 1011.89 1011.61 1011.53 1011.68 1011.24 1010.84 1010.34 1009.79 1008.40 1006.92 1005.76 1004.84 1005.14 1005.06 1004.27 1003.66 1002.70 1001.44 1000.22 998.80 997.15 996.09 995.36 994.94 994.72 994.80 994.95 995.50 996.04 996.70 997.15 996.48 996.10 996.16 995.97 995.50 994.74
1016.21 1015.93 1015.70 1015.67 1015.71 1015.63 1015.42 1015.20 1015.15 1014.53 1013.66 1013.24 1012.78 1012.45 1012.20 1011.73 1011.20 1011.00 1010.96 1010.93 1010.91 1010.75 1010.57 1010.01 1009.14 1007.64 1006.37 1005.10 1004.55 1004.62 1004.64 1004.04 1003.17 1001.98 1000.97 999.84 998.57 997.33 996.34 995.26 994.51 994.29 994.46 994.92 995.24 995.00 994.86 994.68 995.82 995.73 995.39 995.02 994.57 994.42
1015.73 1015.46 1015.18 1015.06 1015.43 1015.42 1015.27 1014.87 1014.75 1014.29 1013.49 1012.78 1012.32 1011.83 1011.41 1010.93 1010.50 1010.30 1010.25 1010.22 1010.28 1010.30 1010.08 1009.38 1007.96 1006.50 1005.77 1005.03 1004.94 1005.07 1004.75 1004.19 1003.38 1001.99 1001.10 999.82 998.89 997.73 996.81 995.72 994.54 994.22 994.46 994.40 994.85 995.03 994.89 995.32 995.36 994.90 994.60 994.64 994.47 994.31
1015.65 1015.35 1015.13 1015.17 1015.34 1015.31 1015.16 1014.61 1014.16 1013.71 1013.08 1012.44 1011.81 1011.40 1010.78 1010.31 1010.03 1009.82 1009.74 1009.83 1009.87 1009.45 1008.66 1007.74 1006.86 1006.05 1005.60 1005.08 1004.76 1004.98 1004.39 1004.04 1003.23 1002.74 1001.85 1000.17 998.66 997.74 997.29 996.20 994.47 995.13 994.65 994.19 994.84 995.12 995.28 995.20 995.14 994.85 994.93 995.02 994.91 994.83
1015.69 1015.41 1015.21 1015.16 1015.11 1014.93 1014.83 1014.26 1013.90 1013.34 1013.02 1011.99 1011.43 1010.87 1010.39 1009.88 1009.42 1009.22 1009.26 1009.32 1008.98 1008.18 1007.63 1006.74 1006.17 1005.64 1005.26 1004.83 1004.42 1004.24 1004.14 1003.88 1002.92 1002.33 1001.75 1000.50 999.81 998.70 998.31 997.50 996.52 995.78 995.47 995.74 995.91 995.14 995.32 995.66 996.04 995.82 995.34 995.73 995.81 995.86
1015.74 1015.57 1015.27 1015.12 1014.89 1014.50 1014.15 1013.74 1013.43 1012.83 1012.28 1011.32 1010.70 1010.23 1009.69 1009.25 1008.75 1008.93 1008.73 1008.24 1007.44 1006.48 1006.09 1005.85 1005.43 1005.23 1004.98 1004.54 1004.20 1003.74 1003.71 1003.34 1002.90 1002.20 1001.61 1000.91 1000.22 999.52 998.84 998.14 997.81 997.30 996.64 996.81 996.96 997.24 996.94 997.50 997.69 996.92 996.12 996.30 996.00 996.17
1015.74 1015.53 1015.17 1014.95 1014.77 1014.21 1013.62 1013.19 1012.77 1012.15 1011.33 1010.65 1010.14 1009.52 1008.80 1008.34 1008.43 1008.27 1007.99 1007.33 1006.33 1005.86 1005.61 1005.26 1005.05 1004.78 1004.60 1004.35 1004.10 1003.88 1003.75 1003.44 1003.00 1002.09 1001.88 1001.27 1000.43 1000.03 999.87 999.51 998.77 998.29 998.22 998.11 998.08 997.94 997.65 997.71 997.61 997.05 996.91 996.42 996.85 996.66
1016.04 1015.86 1015.51 1014.93 1014.44 1014.03 1013.31 1012.62 1012.09 1011.70 1011.14 1010.26 1009.62 1008.55 1008.08 1008.21 1008.12 1008.06 1007.78 1006.88 1006.06 1005.92 1005.61 1005.14 1004.94 1004.83 1004.62 1004.36 1004.24 1004.15 1004.07 1003.73 1003.19 1002.20 1001.78 1001.91 1001.45 1000.70 1000.48 1000.36 1000.46 1000.34 999.67 999.21 999.22 999.25 999.23 999.02 998.40 997.83 997.36 998.16 998.11 998.31
1015.78 1015.41 1015.28 1014.74 1014.24 1013.81 1013.30 1012.63 1012.01 1011.85 1010.89 1009.97 1009.14 1008.27 1007.67 1007.61 1007.73 1008.23 1007.92 1006.79 1006.74 1006.20 1005.82 1005.41 1005.15 1004.94 1004.89 1004.80 1004.77 1004.57 1004.37 1004.23 1003.79 1003.21 1002.95 1002.61 1002.18 1001.71 1001.39 1001.19 1001.15 1001.28 1001.01 1000.41 1000.26 1000.28 1000.21 1000.18 999.94 999.59 999.56 999.93 1000.37 1000.35
1015.66 1015.16 1014.78 1014.42 1014.24 1013.70 1013.06 1012.44 1012.20 1011.78 1010.64 1009.94 1009.20 1008.39 1007.70 1007.52 1007.60 1007.75 1007.63 1007.26 1007.15 1006.65 1006.18 1005.84 1005.59 1005.46 1005.27 1005.16 1004.78 1004.58 1004.50 1004.26 1004.05 1004.02 1003.76 1003.38 1003.07 1002.81 1002.45 1002.14 1002.12 1002.77 1002.18 1001.70 1001.44 1001.22 1001.29 1001.47 1001.47 1001.36 1001.36 1001.37 1001.41 1001.29
1015.58 1015.13 1014.71 1014.17 1013.64 1013.41 1012.96 1012.42 1011.91 1011.32 1010.37 1009.99 1009.48 1008.92 1008.89 1009.18 1009.21 1008.35 1008.28 1007.59 1007.48 1006.98 1006.65 1006.38 1006.06 1005.80 1005.60 1005.49 1005.24 1004.95 1004.67 1004.62 1004.31 1004.19 1003.78 1003.69 1003.72 1003.62 1003.51 1003.50 1003.45 1003.27 1003.09 1003.02 1002.54 1002.27 1002.26 1002.41 1002.40 1002.34 1002.28 1002.39 1002.59 1002.58
1015.36 1014.84 1014.56 1013.85 1013.19 1012.87 1012.56 1012.15 1011.65 1011.03 1011.10 1010.78 1010.21 1009.90 1009.79 1009.59 1009.42 1008.91 1008.85 1008.46 1007.95 1007.45 1006.94 1006.71 1006.64 1006.39 1006.09 1005.95 1005.77 1005.62 1005.33 1004.84 1004.25 1004.09 1003.89 1003.98 1003.90 1004.07 1003.93 1003.70 1003.56 1003.38 1003.16 1003.17 1003.97 1003.61 1003.66 1003.34 1003.19 1003.06 1003.11 1003.24 1003.36 1003.36
1014.66 1014.39 1014.04 1013.38 1012.63 1012.10 1011.79 1011.81 1011.17 1011.08 1010.98 1010.84 1010.59 1010.19 1009.88 1009.51 1009.47 1009.25 1008.87 1008.69 1008.28 1008.00 1007.72 1007.46 1007.25 1006.89 1006.82 1006.61 1006.56 1006.37 1006.10 1005.85 1005.50 1005.14 1005.21 1005.31 1005.38 1005.10 1004.61 1004.27 1004.06 1003.90 1003.82 1003.63 1003.88 1004.01 1003.75 1003.35 1003.46 1003.53 1003.72 1003.87 1004.04 1004.18
1014.01 1013.79 1013.58 1013.02 1012.38 1011.93 1011.51 1011.15 1011.10 1010.80 1010.63 1010.44 1010.42 1010.01 1009.71 1009.57 1009.38 1009.47 1009.34 1009.16 1008.74 1008.35 1008.09 1007.86 1007.62 1007.49 1007.38 1007.42 1007.38 1007.12 1006.95 1006.85 1006.60 1006.44 1006.40 1006.02 1005.76 1005.54 1005.23 1004.93 1004.79 1004.64 1004.51 1004.46 1004.47 1004.43 1004.23 1004.17 1004.21 1004.22 1004.59 1004.74 1004.85 1004.63
1013.55 1013.25 1013.00 1012.40 1011.96 1011.74 1011.19 1011.16 1011.20 1011.10 1011.07 1010.73 1010.53 1010.18 1009.93 1009.62 1009.43 1009.62 1009.61 1009.29 1008.90 1008.73 1008.74 1008.57 1008.30 1008.31 1008.23 1008.14 1007.92 1007.77 1007.71 1007.50 1007.21 1007.00 1006.71 1006.39 1006.15 1006.12 1005.85 1005.65 1005.57 1005.45 1005.27 1005.23 1005.18 1005.21 1005.29 1005.22 1005.25 1005.36 1005.31 1005.40 1005.54 1005.54
1013.03 1012.75 1012.38 1012.26 1011.90 1011.73 1011.70 1011.57 1011.52 1011.48 1011.60 1011.23 1011.19 1010.96 1010.83 1010.79 1010.33 1010.31 1009.98 1009.92 1009.68 1009.26 1008.92 1008.75 1008.64 1008.57 1008.57 1008.48 1008.37 1008.14 1008.07 1007.95 1007.72 1007.54 1007.43 1007.30 1007.09 1006.89 1006.54 1006.33 1006.21 1005.94 1005.78 1005.83 1005.92 1005.94 1005.91 1005.93 1005.99 1006.06 1006.09 1006.13 1006.18 1006.23
Wind_Speed
20 21 22 21 19 17 18 15 4 6 7 8 8 8 9 9 6 2 1 3 3 2 4 5 4 4 3 3 3 4 3 4 3 7 5 4 5 3 4 2 6 10 12 8 8 11 16 7 4 6 6 6 9 10
20 20 22 21 19 17 17 14 4 7 7 7 8 8 8 7 6 2 1 1 1 3 4 2 5 8 7 5 3 3 4 1 1 3 3 2 4 3 3 6 4 7 5 4 11 7 5 6 8 9 9 6 9 8
19 19 21 20 18 17 17 11 8 6 7 8 8 8 7 7 6 2 1 1 0 2 4 3 3 2 5 11 8 5 2 3 3 2 0 0 5 2 5 5 5 5 2 5 4 10 7 4 8 8 9 10 6 11
18 19 20 20 18 17 16 11 12 5 7 9 7 7 7 8 7 2 2 3 1 1 3 2 0 5 3 6 14 13 2 4 3 1 0 2 3 2 2 4 5 3 3 6 9 13 11 7 4 7 13 12 9 12
18 19 19 20 19 17 17 10 11 6 6 6 7 7 8 8 6 4 3 4 6 2 3 5 13 3 4 7 13 12 13 10 2 2 2 4 2 3 3 4 12 8 10 8 9 1 4 3 6 15 15 14 12 17
19 18 18 19 18 18 12 10 10 7 7 6 8 6 8 7 4 1 1 1 3 3 2 4 2 2 2 3 8 8 9 7 4 4 3 3 4 5 6 9 15 21 18 17 11 8 11 15 13 17 17 10 15 17
18 18 18 18 18 17 13 10 11 6 8 7 7 7 6 6 2 2 2 2 4 2 2 4 4 0 2 1 3 4 7 3 4 4 5 4 4 6 8 22 6 13 18 21 20 19 23 24 15 7 13 16 18 19
18 18 18 18 18 18 13 10 6 7 8 8 7 7 7 7 6 4 4 12 5 1 1 3 4 3 2 1 3 4 5 5 6 5 3 6 6 4 14 16 17 24 22 17 17 19 21 19 18 16 16 16 19 19
17 18 18 18 19 15 7 9 7 8 9 9 9 9 2 3 2 1 2 7 6 2 1 2 3 2 0 1 1 3 4 5 4 6 6 6 8 14 24 18 17 14 17 22 23 25 25 26 23 23 21 21 17 19
18 18 18 16 16 7 8 8 7 8 9 7 2 2 2 3 4 4 3 3 2 3 3 3 2 3 1 1 1 3 3 4 4 7 4 6 15 24 24 21 18 18 21 20 22 24 24 23 21 20 18 16 16 16
18 18 17 15 14 8 9 8 6 7 3 1 1 1 2 6 1 0 2 3 3 3 3 4 7 5 3 5 4 3 2 3 4 5 6 6 9 17 24 26 25 25 24 24 26 26 24 21 19 18 16 15 13 15
18 18 15 12 12 9 7 4 3 1 1 1 2 2 2 0 1 2 3 4 5 4 4 3 3 5 3 2 3 3 3 3 6 6 5 7 6 5 4 12 17 21 27 29 28 28 25 25 22 18 16 16 16 15
19 17 11 11 12 9 7 5 4 3 2 1 2 2 3 3 3 4 4 3 3 3 3 3 3 4 3 3 3 4 6 5 3 5 6 7 9 13 24 24 25 25 27 30 30 27 26 25 22 20 18 16 16 17
17 12 12 11 10 8 7 6 4 2 1 1 2 3 4 4 4 5 4 2 2 2 3 2 3 4 4 5 3 5 5 4 5 5 6 5 19 28 26 24 22 23 27 31 29 25 25 23 20 18 17 17 14 17
11 10 11 9 5 3 9 5 3 2 1 3 3 4 5 4 3 3 4 5 4 4 4 4 4 4 3 4 5 5 5 5 5 4 9 12 22 29 23 17 13 10 12 20 21 20 22 19 17 16 16 14 16 16
11 8 2 9 10 6 6 5 2 1 2 2 4 4 2 3 5 5 5 5 2 4 2 3 4 4 5 3 4 5 3 4 4 7 13 17 26 20 15 11 6 8 10 14 15 17 17 17 16 15 12 15 16 13
8 1 6 6 9 3 2 1 1 3 3 4 4 3 5 6 6 6 5 4 2 2 3 3 5 4 1 4 5 5 5 5 10 13 14 18 25 22 16 6 3 6 9 11 12 12 12 12 11 12 15 12 12 18
1 1 7 8 7 1 1 3 2 3 5 4 3 3 3 4 7 6 3 4 3 3 2 3 3 4 5 3 4 2 5 5 8 11 12 17 22 18 13 7 3 5 10 10 10 9 8 8 5 7 12 15 13 9
6 8 13 11 4 2 1 2 2 3 4 2 3 4 3 4 5 7 6 4 5 3 2 2 5 4 5 4 6 5 6 7 10 12 13 14 16 17 15 10 8 7 10 8 7 3 5 9 10 9 7 5 3 2
12 10 9 4 6 1 2 2 1 3 3 2 3 3 3 3 2 2 3 3 2 2 3 4 6 4 3 6 6 5 6 7 9 11 11 12 14 19 13 9 6 6 7 9 5 6 7 6 3 2 3 4 4 2
5 2 4 3 1 2 2 2 3 3 3 4 2 2 3 2 3 1 1 2 2 3 4 5 7 8 7 8 6 4 6 5 7 6 10 10 14 10 8 9 6 6 6 7 5 4 6 5 4 4 6 6 7 5
2 6 2 2 1 2 3 3 3 2 3 3 4 2 3 4 2 1 1 2 3 4 4 3 4 6 7 9 8 6 6 7 8 7 9 10 10 10 9 7 7 9 8 9 8 9 8 8 5 3 6 7 8 9
5 2 1 1 2 2 4 1 2 2 3 4 2 3 3 3 1 1 3 3 4 5 5 5 7 7 8 9 7 7 2 4 4 6 8 8 7 7 6 6 7 8 9 9 8 6 6 3 3 3 7 6 8 9
2 2 3 3 1 4 2 2 2 3 3 3 2 5 3 2 0 2 3 3 4 3 4 5 4 4 3 4 3 3 4 3 5 7 5 8 8 8 7 7 9 9 8 6 7 8 8 8 8 9 9 11 10 10
3 4 2 4 2 3 4 5 3 2 4 4 4 4 2 2 3 3 3 4 4 7 4 5 3 3 3 3 2 3 3 3 5 9 7 9 7 8 7 5 7 9 8 7 8 9 8 6 9 11 13 12 13 14
3 1 2 4 3 4 4 5 4 4 5 4 4 5 2 2 2 5 4 4 4 4 6 5 3 3 3 3 3 3 3 2 4 4 6 8 8 7 6 8 8 10 9 7 7 8 9 7 9 11 12 12 10 8
4 3 2 2 2 4 3 4 1 3 4 6 7 7 5 8 7 2 4 3 4 4 5 5 5 4 3 3 3 2 2 3 5 4 3 5 7 7 8 9 11 7 8 9 8 8 8 8 8 9 9 9 10 9
2 2 4 5 3 0 4 4 3 4 4 4 4 10 8 11 8 7 3 7 6 6 5 4 5 5 4 5 5 5 5 3 1 2 3 8 9 8 9 7 7 8 10 10 9 9 9 8 8 9 11 10 9 8
2 2 2 4 3 2 2 3 4 2 2 3 4 5 5 4 5 5 5 8 6 5 7 7 7 5 4 5 7 7 6 6 6 9 13 9 8 9 8 7 8 8 8 10 12 12 13 10 10 11 12 10 9 8
2 2 2 3 4 4 2 1 5 4 2 2 2 2 2 1 4 6 6 6 7 8 7 7 6 6 7 7 7 9 8 8 7 7 8 8 5 5 5 7 7 7 7 9 10 10 9 11 11 12 12 9 8 8
1 1 2 3 3 2 4 5 1 1 2 2 1 2 3 2 1 4 7 6 6 7 7 9 11 10 10 9 8 8 8 8 9 9 6 5 4 4 7 8 7 7 8 10 11 11 12 13 13 15 15 15 14 13
1 2 2 3 2 3 4 4 4 4 5 5 7 7 7 6 6 5 7 7 7 8 7 7 8 8 8 5 3 2 3 5 7 6 8 7 7 6 6 6 7 8 10 11 11 12 14 14 12 13 13 15 14 14
2 2 2 1 1 2 3 3 4 3 5 5 5 6 4 3 4 3 5 5 4 5 6 5 4 3 4 4 5 4 3 2 3 5 8 8 8 7 3 4 5 6 9 8 7 7 9 11 10 10 10 10 10 9
Wind_Direction
332 331 333 334 333 331 330 325 318 323 319 322 326 332 336 346 12 20 62 11 353 309 275 224 214 181 157 198 206 126 206 184 184 203 209 190 229 195 257 235 181 179 177 189 203 222 235 9 172 228 14 24 42 1
332 328 328 334 332 330 327 328 318 321 314 311 316 321 324 330 360 109 46 38 4 227 302 293 276 271 252 223 173 195 328 168 158 215 216 225 207 226 251 224 182 225 258 210 213 206 101 44 78 81 37 22 15 355
328 327 327 330 329 327 328 319 307 313 312 304 303 311 313 306 298 275 250 161 244 301 266 261 230 222 224 233 231 232 196 240 198 333 218 176 240 214 217 221 291 199 347 243 258 208 217 39 126 62 32 16 354 356
327 326 325 328 330 327 321 319 317 295 299 298 303 308 309 306 313 318 233 152 142 283 285 292 115 262 200 216 213 224 131 122 79 270 137 254 254 211 255 330 263 289 307 226 246 273 269 169 115 1 348 349 342 341
324 323 323 324 325 323 317 314 316 287 297 307 306 305 307 307 314 289 248 224 221 232 281 286 303 280 262 236 223 213 215 223 211 222 209 226 259 233 218 269 242 208 224 221 247 188 280 289 335 327 327 331 339 340
320 322 320 322 323 324 323 315 312 292 293 282 291 300 299 310 331 305 268 138 207 183 271 292 356 258 284 194 201 176 195 203 206 206 220 233 225 238 245 252 242 232 231 243 248 268 270 276 288 298 300 319 321 323
318 319 318 320 320 320 320 313 310 288 289 286 288 295 299 302 179 233 326 84 149 132 238 278 289 224 303 162 146 174 190 161 202 208 220 227 205 214 250 250 225 230 240 239 247 263 273 265 271 279 296 304 307 302
318 319 319 318 317 315 312 306 306 292 298 299 297 294 286 277 259 257 249 179 145 213 218 282 278 294 212 171 185 169 165 180 206 214 194 215 223 224 250 246 239 243 246 247 243 243 257 277 279 273 282 293 297 295
316 317 317 317 314 311 312 311 299 296 296 299 303 296 269 184 221 249 264 190 186 238 235 206 282 338 83 285 268 193 189 198 184 213 209 201 201 225 240 238 244 242 231 240 241 248 254 257 267 274 277 277 276 283
313 312 313 317 323 327 316 315 297 309 307 307 141 198 202 206 270 198 179 152 147 178 225 238 213 265 189 192 301 280 180 221 235 206 175 226 245 253 255 250 248 243 242 235 236 239 243 249 251 257 260 265 268 272
309 310 311 312 319 311 309 303 306 325 54 358 292 257 346 323 256 259 242 193 158 225 211 226 207 218 198 212 215 219 253 223 240 183 218 232 250 233 238 242 244 245 242 239 235 238 238 236 246 250 248 251 262 269
308 308 305 305 306 295 300 301 303 347 47 21 311 306 295 234 120 294 227 168 218 235 182 209 218 198 207 178 202 215 241 226 249 146 228 252 263 253 223 239 242 237 238 238 232 237 235 236 238 244 251 258 263 271
310 310 304 298 295 291 282 276 263 248 132 154 212 240 199 142 207 225 212 189 220 200 182 211 224 202 159 194 211 243 229 234 319 223 236 245 308 308 300 284 275 253 234 229 232 225 229 233 236 240 248 251 260 269
313 309 305 299 292 276 259 248 239 133 181 233 237 256 215 188 222 216 263 288 326 307 342 290 252 233 174 186 227 248 234 245 242 237 249 305 303 295 296 287 279 266 228 215 219 218 221 224 230 234 242 252 256 260
320 323 318 340 305 273 225 227 214 171 203 248 216 241 229 248 270 287 297 281 279 300 295 293 266 235 187 228 203 246 234 249 255 269 295 298 309 303 294 302 286 279 211 199 207 207 214 214 221 235 239 249 249 256
333 323 39 19 19 36 144 153 140 188 248 229 233 258 262 268 254 249 250 258 307 278 269 224 252 265 215 222 219 226 277 254 273 282 290 296 307 306 309 306 249 225 201 190 193 196 202 209 216 230 245 244 246 253
337 18 326 15 0 354 183 123 149 223 248 237 233 224 255 280 274 266 248 237 197 240 234 257 243 249 102 224 233 199 210 241 274 288 298 303 312 324 336 358 283 202 180 172 172 183 199 211 218 234 244 260 269 257
264 279 323 335 342 301 260 195 229 244 248 244 248 241 213 225 254 257 227 200 206 214 218 241 314 254 259 255 255 184 260 280 282 292 302 309 317 329 347 327 12 150 160 149 159 171 187 207 250 273 260 261 255 246
287 295 292 291 282 304 275 219 212 268 259 260 248 244 239 246 236 248 255 229 213 230 263 242 252 238 245 260 287 328 323 315 309 308 307 314 320 340 344 334 11 66 123 148 169 199 255 237 226 232 237 239 196 206
303 294 304 244 186 226 257 232 196 258 275 280 250 251 239 249 270 232 223 200 175 182 201 232 237 244 242 299 308 310 304 307 303 303 319 329 334 335 335 329 342 47 84 109 115 196 168 156 181 119 64 75 98 61
319 337 39 116 171 241 296 301 252 233 278 264 272 274 278 256 258 252 229 143 189 230 236 240 253 260 272 286 293 278 280 286 290 294 304 316 320 330 350 5 10 38 14 25 35 64 62 25 17 56 54 55 64 59
287 327 278 202 257 208 249 230 256 283 272 279 291 263 288 290 290 235 159 200 230 228 219 231 252 281 295 294 294 293 283 286 283 294 302 311 329 344 347 350 19 33 32 53 36 25 26 10 358 49 74 71 81 64
303 250 255 284 305 291 274 184 276 241 271 269 279 276 251 259 236 139 248 212 246 230 249 249 262 270 266 289 293 309 336 315 309 308 314 318 323 344 5 9 23 39 24 11 20 38 61 36 39 72 69 63 66 62
277 304 316 329 234 280 303 270 231 261 265 260 275 285 275 282 51 236 260 255 252 324 316 299 269 290 298 279 314 0 353 314 310 297 330 354 357 359 17 27 24 26 23 24 24 29 21 24 35 42 44 51 45 53
358 357 8 319 242 306 295 304 304 295 308 318 300 270 334 357 337 325 285 280 308 327 326 341 337 1 356 354 341 355 27 332 336 328 355 9 1 6 19 48 59 34 8 31 35 32 26 18 37 35 41 43 41 47
34 342 28 340 326 334 326 317 325 360 292 307 301 307 310 310 346 338 288 308 331 324 346 343 346 349 15 14 3 2 5 331 313 310 354 357 4 4 4 28 39 39 17 24 42 58 59 50 52 53 59 57 54 64
16 3 320 208 266 276 293 269 283 283 297 355 334 324 329 3 354 319 312 322 309 331 337 10 20 20 356 353 320 329 13 29 58 61 39 31 42 34 25 17 24 19 22 42 48 45 58 64 69 71 72 61 52 54
331 318 322 322 293 265 292 307 314 325 334 351 334 14 25 11 349 331 349 331 337 340 347 23 18 20 13 4 7 10 38 14 275 183 111 75 60 51 54 57 43 30 52 37 46 52 63 71 72 73 72 68 61 52
279 266 288 290 277 244 285 321 325 17 323 309 356 13 11 12 331 328 336 348 348 0 17 18 23 10 39 40 34 18 5 356 21 49 54 48 40 35 22 33 36 33 36 59 62 58 58 64 75 76 75 74 70 68
252 181 261 277 299 25 15 282 347 14 278 304 291 300 298 342 8 0 16 16 19 24 22 26 21 33 39 41 47 44 31 25 25 35 60 55 24 339 3 23 27 30 33 44 51 60 59 78 81 76 72 64 63 67
281 234 257 242 279 29 311 315 260 251 326 336 8 339 11 344 45 36 24 9 27 29 29 30 39 35 36 34 33 42 49 30 36 41 39 44 20 11 20 30 42 57 61 63 63 62 66 67 70 73 77 78 77 79
235 265 309 335 13 8 338 11 19 42 14 22 23 8 15 23 39 23 360 348 18 23 15 20 30 19 16 41 39 42 7 37 37 20 23 27 32 32 42 58 70 77 76 70 68 70 69 68 71 74 74 73 72 72
267 259 220 257 343 69 8 2 23 78 28 5 31 23 2 355 34 327 8 11 336 330 341 344 342 346 4 13 17 21 28 35 357 5 23 18 6 357 65 90 90 85 82 81 83 83 80 83 84 83 81 78 77 77